Columbus AFB, MS

12:54 PM CDT on September 20, 2017 (GMT -0500)
Columbus Air Force Base

Weather History for KCBM - November, 2013

Change the Weather History Date:

Friday, November 22, 2013

  Actual Average Record
Temperature  
Mean Temperature 58 °F -  
Max Temperature 62 °F 61 °F 76 °F (2010)
Min Temperature 52 °F 40 °F 19 °F (2008)
Degree Days  
Heating Degree Days 8    
Growing Degree Days 8 (Base 50)    
Moisture  
Dew Point 59 °F    
Average Humidity 97    
Maximum Humidity 100    
Minimum Humidity 77    
Precipitation  
Precipitation 0.75 in - - ()
Sea Level Pressure  
Sea Level Pressure 30.24 in    
Wind  
Wind Speed 7 mph (SSE)    
Max Wind Speed 18 mph    
Max Gust Speed 23 mph    
Visibility 8 miles    
Events Rain    
Averages and records for this station are not official NWS values.
T = Trace of Precipitation, MM = Missing Value Source: NWS Daily Summary

Daily Weather History Graph

Daily Weather History Graph

Search for Another Location

Airport or City:

Trip Planner

Search our weather history database for the weather conditions in past years. The results will help you decide how hot, cold, wet, or windy it might be!

Date:

Astronomy

Nov. 22, 2013 Rise Set
Actual Time 6:32 AM CST 4:47 PM CST
Civil Twilight 6:05 AM CST 5:14 PM CST
Nautical Twilight 5:35 AM CST 5:44 PM CST
Astronomical Twilight 5:05 AM CST 6:14 PM CST
Moon 9:15 PM CST (11/22) 10:18 AM CST (11/22)
Length of Visible Light 11h 08m
Length of Day
10h 15m
Waning Gibbous, 78% of the Moon is Illuminated
Nov 22
Waning Gibbous
Nov 25
Last Quarter
Dec 2
New
Dec 9
First Quarter
Dec 17
Full

Hourly Weather History & Observations

Time (CST) Temp. Dew Point Humidity Pressure Visibility Wind Dir Wind Speed Gust Speed Precip Events Conditions
12:18 AM 60.8 °F 53.6 °F 77% 30.25 in 10.0 mi SSE 8.1 mph - N/A   Overcast
12:23 AM 60.8 °F 53.6 °F 77% 30.24 in 10.0 mi SSE 8.1 mph - N/A   Overcast
12:28 AM 60.8 °F 53.6 °F 77% 30.24 in 10.0 mi SSE 8.1 mph - N/A   Overcast
12:33 AM 60.8 °F 55.4 °F 82% 30.24 in 10.0 mi SSE 9.2 mph - N/A   Mostly Cloudy
12:58 AM 60.3 °F 55.2 °F 83% 30.24 in 10.0 mi SSE 5.8 mph - N/A   Overcast
1:58 AM 60.8 °F 55.4 °F 82% 30.25 in 10.0 mi SSE 6.9 mph - N/A   Mostly Cloudy
2:08 AM 60.8 °F 55.4 °F 82% 30.24 in 10.0 mi SSE 5.8 mph - N/A   Mostly Cloudy
2:13 AM 60.8 °F 55.4 °F 82% 30.24 in 10.0 mi SSE 4.6 mph - N/A   Mostly Cloudy
2:18 AM 60.8 °F 55.4 °F 82% 30.24 in 10.0 mi SSE 4.6 mph - N/A   Scattered Clouds
2:28 AM 59.0 °F 55.4 °F 88% 30.24 in 10.0 mi SSE 4.6 mph - N/A Rain Light Rain
2:48 AM 59.0 °F 55.4 °F 88% 30.24 in 10.0 mi SSE 4.6 mph - N/A Rain Light Rain
2:53 AM 59.0 °F 57.2 °F 94% 30.24 in 9.0 mi South 4.6 mph - N/A Rain Light Rain
2:58 AM 59.4 °F 56.7 °F 91% 30.25 in 9.0 mi South 3.5 mph - 0.00 in Rain Light Rain
3:03 AM 59.0 °F 57.2 °F 94% 30.24 in 8.0 mi South 3.5 mph - N/A Rain Light Rain
3:08 AM 59.0 °F 57.2 °F 94% 30.23 in 7.0 mi SSE 3.5 mph - N/A Rain Light Rain
3:13 AM 59.0 °F 57.2 °F 94% 30.23 in 6.0 mi SSE 4.6 mph - N/A Rain Light Rain
3:38 AM 59.0 °F 57.2 °F 94% 30.22 in 8.0 mi SSE 6.9 mph - N/A Rain Light Rain
3:53 AM 59.0 °F 59.0 °F 100% 30.22 in 10.0 mi SSE 5.8 mph - N/A Rain Light Rain
3:54 AM 59.0 °F 59.0 °F 100% 30.22 in 10.0 mi SSE 5.8 mph - N/A Rain Light Rain
3:57 AM 59.0 °F 59.0 °F 100% 30.22 in 10.0 mi SSE 5.8 mph - N/A   Mostly Cloudy
3:58 AM 59.0 °F 59.0 °F 100% 30.23 in 10.0 mi SSE 5.8 mph - 0.09 in   Mostly Cloudy
4:03 AM 59.0 °F 59.0 °F 100% 30.21 in 10.0 mi SSE 5.8 mph - N/A Rain Light Rain
4:34 AM 59.0 °F 59.0 °F 100% 30.21 in 10.0 mi SSE 4.6 mph - N/A   Overcast
4:49 AM 59.0 °F 59.0 °F 100% 30.21 in 10.0 mi South 6.9 mph - N/A   Overcast
4:58 AM 59.2 °F 58.6 °F 98% 30.21 in 10.0 mi SSE 8.1 mph - 0.02 in   Overcast
5:03 AM 59.0 °F 59.0 °F 100% 30.20 in 10.0 mi SSE 6.9 mph - N/A   Overcast
5:53 AM 59.0 °F 57.2 °F 94% 30.21 in 10.0 mi SSE 6.9 mph - N/A   Scattered Clouds
5:58 AM 58.3 °F 57.0 °F 96% 30.22 in 10.0 mi SSE 6.9 mph - N/A   Scattered Clouds
6:23 AM 57.2 °F 57.2 °F 100% 30.22 in 10.0 mi East 3.5 mph - N/A   Mostly Cloudy
6:48 AM 59.0 °F 59.0 °F 100% 30.22 in 10.0 mi SE 5.8 mph - N/A   Overcast
6:58 AM 59.0 °F 57.9 °F 96% 30.23 in 10.0 mi SE 6.9 mph - N/A   Overcast
7:28 AM 59.0 °F 57.2 °F 94% 30.24 in 10.0 mi South 5.8 mph - N/A   Overcast
7:58 AM 59.7 °F 57.9 °F 94% 30.24 in 10.0 mi SE 6.9 mph - N/A   Mostly Cloudy
8:08 AM 60.8 °F 59.0 °F 94% 30.24 in 10.0 mi SE 3.5 mph - N/A   Mostly Cloudy
8:38 AM 59.0 °F 57.2 °F 94% 30.29 in 10.0 mi NW 11.5 mph - N/A   Overcast
8:39 AM 59.0 °F 57.2 °F 94% 30.29 in 10.0 mi West 6.9 mph - N/A Rain Light Rain
8:58 AM 59.4 °F 57.9 °F 95% 30.30 in 10.0 mi WNW 8.1 mph - 0.01 in Rain Light Rain
9:04 AM 59.0 °F 57.2 °F 94% 30.29 in 10.0 mi WNW 5.8 mph - N/A Rain Light Rain
9:24 AM 59.0 °F 59.0 °F 100% 30.27 in 4.0 mi SE 10.4 mph - N/A Rain Heavy Rain
9:29 AM 59.0 °F 59.0 °F 100% 30.27 in 1.8 mi SSE 9.2 mph - N/A Rain Heavy Rain
9:34 AM 59.0 °F 59.0 °F 100% 30.27 in 1.2 mi SSE 10.4 mph - N/A Rain Heavy Rain
9:39 AM 59.0 °F 59.0 °F 100% 30.26 in 1.5 mi SSE 12.7 mph - N/A Rain Heavy Rain
9:44 AM 59.0 °F 59.0 °F 100% 30.26 in 1.8 mi SE 11.5 mph - N/A Rain Rain
9:49 AM 59.0 °F 59.0 °F 100% 30.25 in 2.5 mi SE 11.5 mph - N/A Rain Light Rain
9:54 AM 59.0 °F 59.0 °F 100% 30.25 in 4.0 mi SSE 12.7 mph - N/A Rain Light Rain
9:58 AM 59.5 °F 59.5 °F 100% 30.26 in 5.0 mi SSE 12.7 mph - 0.52 in Rain Light Rain
9:59 AM 59.0 °F 59.0 °F 100% 30.25 in 4.0 mi SSE 13.8 mph - N/A   Overcast
10:03 AM 59.0 °F 59.0 °F 100% 30.25 in 4.0 mi SSE 12.7 mph - N/A Rain Light Rain
10:08 AM 59.0 °F 59.0 °F 100% 30.25 in 3.0 mi SSE 12.7 mph - N/A Rain Light Rain
10:13 AM 60.8 °F 60.8 °F 100% 30.25 in 4.0 mi SSE 12.7 mph - N/A Rain Light Rain
10:15 AM 60.8 °F 60.8 °F 100% 30.25 in 7.0 mi South 8.1 mph - N/A Rain Light Rain
10:58 AM 60.6 °F 60.6 °F 100% 30.25 in 8.0 mi South 6.9 mph - 0.03 in Rain Light Rain
11:03 AM 60.8 °F 60.8 °F 100% 30.24 in 7.0 mi South 5.8 mph - N/A Rain Light Rain
11:12 AM 60.8 °F 60.8 °F 100% 30.24 in 6.0 mi South 4.6 mph - N/A Rain Light Rain
11:40 AM 60.8 °F 60.8 °F 100% 30.21 in 8.0 mi SE 6.9 mph - N/A   Overcast
11:43 AM 60.8 °F 60.8 °F 100% 30.22 in 7.0 mi SSE 3.5 mph - N/A Rain Light Rain
11:58 AM 60.8 °F 60.8 °F 100% 30.23 in 6.0 mi North 4.6 mph - 0.04 in Rain Light Rain
12:03 PM 60.8 °F 60.8 °F 100% 30.22 in 7.0 mi North 8.1 mph - N/A Rain Light Rain
12:13 PM 60.8 °F 60.8 °F 100% 30.22 in 7.0 mi North 6.9 mph - N/A Rain Light Rain
12:21 PM 60.8 °F 60.8 °F 100% 30.21 in 8.0 mi Calm Calm - N/A   Overcast
12:46 PM 60.8 °F 60.8 °F 100% 30.22 in 8.0 mi WNW 5.8 mph - N/A   Overcast
12:58 PM 61.2 °F 61.2 °F 100% 30.24 in 9.0 mi WNW 5.8 mph - 0.01 in   Overcast
1:04 PM 60.8 °F 60.8 °F 100% 30.22 in 8.0 mi WNW 3.5 mph - N/A Rain Light Rain
1:09 PM 60.8 °F 60.8 °F 100% 30.22 in 4.0 mi NNW 2.3 mph - N/A Rain Light Rain
1:14 PM 60.8 °F 60.8 °F 100% 30.22 in 2.5 mi North 1.2 mph - N/A Rain Rain
1:19 PM 60.8 °F 60.8 °F 100% 30.22 in 2.5 mi North 1.2 mph - N/A Rain Light Rain
1:29 PM 60.8 °F 60.8 °F 100% 30.22 in 2.5 mi NW 5.8 mph - N/A Rain Light Rain
1:34 PM 60.8 °F 60.8 °F 100% 30.21 in 3.0 mi WNW 4.6 mph - N/A Rain Light Rain
1:39 PM 60.8 °F 60.8 °F 100% 30.21 in 4.0 mi NW 3.5 mph - N/A Rain Light Rain
1:48 PM 60.8 °F 60.8 °F 100% 30.21 in 5.0 mi NW 4.6 mph - N/A   Overcast
1:58 PM 61.9 °F 61.9 °F 100% 30.22 in 7.0 mi NW 2.3 mph - 0.03 in   Overcast
2:43 PM 62.6 °F 62.6 °F 100% 30.21 in 10.0 mi NNW 2.3 mph - N/A   Overcast
2:58 PM 62.2 °F 62.2 °F 100% 30.22 in 10.0 mi North 2.3 mph - N/A   Overcast
3:03 PM 62.6 °F 62.6 °F 100% 30.21 in 10.0 mi North 2.3 mph - N/A   Overcast
3:08 PM 62.6 °F 62.6 °F 100% 30.21 in 10.0 mi North 2.3 mph - N/A   Overcast
3:43 PM 62.6 °F 62.6 °F 100% 30.21 in 5.0 mi Calm Calm - N/A   Overcast
3:58 PM 62.1 °F 62.1 °F 100% 30.22 in 9.0 mi Calm Calm - N/A   Overcast
4:23 PM 62.6 °F 62.6 °F 100% 30.21 in 9.0 mi North 1.2 mph - N/A   Overcast
4:48 PM 62.6 °F 62.6 °F 100% 30.21 in 10.0 mi NNW 4.6 mph - N/A   Overcast
4:58 PM 62.6 °F 62.6 °F 100% 30.22 in 10.0 mi NNW 5.8 mph - N/A   Overcast
5:08 PM 62.6 °F 62.6 °F 100% 30.21 in 10.0 mi NNW 5.8 mph - N/A   Overcast
5:24 PM 60.8 °F 60.8 °F 100% 30.21 in 10.0 mi NNW 6.9 mph - N/A   Overcast
5:34 PM 60.8 °F 60.8 °F 100% 30.21 in 10.0 mi North 8.1 mph - N/A   Overcast
5:44 PM 60.8 °F 60.8 °F 100% 30.21 in 10.0 mi North 8.1 mph - N/A   Overcast
5:54 PM 60.8 °F 60.8 °F 100% 30.21 in 10.0 mi North 8.1 mph - N/A   Overcast
5:58 PM 61.3 °F 61.3 °F 100% 30.22 in 10.0 mi North 8.1 mph - N/A   Overcast
6:03 PM 60.8 °F 60.8 °F 100% 30.21 in 10.0 mi North 9.2 mph - N/A   Overcast
6:23 PM 60.8 °F 60.8 °F 100% 30.21 in 10.0 mi North 10.4 mph - N/A   Overcast
6:43 PM 59.0 °F 59.0 °F 100% 30.22 in 10.0 mi NNW 12.7 mph - N/A   Overcast
6:48 PM 59.0 °F 59.0 °F 100% 30.22 in 10.0 mi North 12.7 mph - N/A   Overcast
6:58 PM 59.0 °F 58.8 °F 99% 30.24 in 10.0 mi North 18.4 mph - N/A   Overcast
7:43 PM 57.2 °F 57.2 °F 100% 30.25 in 10.0 mi North 10.4 mph 19.6 mph N/A   Overcast
7:58 PM 57.9 °F 56.7 °F 96% 30.26 in 10.0 mi North 11.5 mph - N/A   Overcast
8:03 PM 57.2 °F 55.4 °F 94% 30.26 in 10.0 mi NNW 9.2 mph - N/A   Overcast
8:58 PM 56.5 °F 54.5 °F 93% 30.28 in 10.0 mi NNW 10.4 mph - N/A   Overcast
9:23 PM 57.2 °F 53.6 °F 88% 30.28 in 10.0 mi NNW 9.2 mph - N/A   Overcast
9:58 PM 55.8 °F 54.0 °F 94% 30.29 in 10.0 mi NNW 9.2 mph - N/A   Overcast
10:43 PM 53.6 °F 53.6 °F 100% 30.29 in 10.0 mi NNW 11.5 mph - N/A   Overcast
10:58 PM 54.1 °F 52.7 °F 95% 30.30 in 10.0 mi North 12.7 mph - N/A   Overcast
11:23 PM 53.6 °F 51.8 °F 94% 30.29 in 10.0 mi NNW 17.3 mph 23.0 mph N/A   Overcast
11:58 PM 52.5 °F 51.1 °F 95% 30.30 in 9.0 mi North 12.7 mph - N/A   Overcast